sat.trackr.live / text

‹ back to catalog

SNAP-3 ALICE

NORAD 40970 · 2015-058G

PAYLOAD ACTIVE UNKNOWN

§ Identity

Operator
Country
US
Launch date
2015-10-08
Launch site
AFWTR
Launch vehicle
Mass (kg)
RCS (m²)

Purposes: tech_demo

External: N2YO · Heavens-Above · Gunter

§ Orbital elements

Epoch: 2026-09-13T03:06:29.947392Z

Period
89.87 min
Inclination
64.7360°
Eccentricity
0.0015257
Mean motion
16.02311752 rev/d
Perigee alt
257.9 km
Apogee alt
278.2 km
Semi-major
6,646.2 km
B*
1.8644e-3
RAAN
153.6912°
Arg perigee
270.6795°
Mean anomaly
89.2623°
Rev number
13,072

§ Raw data

SNAP-3 ALICE1 40970U 15058G   26256.12951328  .01103896  64775-3  18644-2 0  99962 40970  64.7360 153.6912 0015257 270.6795  89.2623 16.02311752130722

JSON: /api/v1/satellites/40970 · /tle

For live sub-satellite position, see the globe view (requires WebGL).

§ Visibility from observer

Set your observer location to see the next 7 days of passes ≥ 10°. The values pass through the URL so the page stays shareable.

No JS? Fill the form by hand. The geolocation button needs JavaScript.